Theta_e
345 343 340 340 341 343 342 343 342 341 340 340 340 340 339 340 340 339 339 338 337 337 337 338 338 338 339 339 339 339 338 339 339 340 340 339 338 339 339 339 339 339 339 339 340 340 340 340 340 340 340 339 338 337 336 336 336 334 333 332 331 331 332 330 327 328 332 336 336 334 333 335 333 331 333 334 336 337 338 338 337 337 336 335 335
344 343 342 342 342 342 342 343 340 340 339 339 339 338 338 339 340 339 339 338 337 337 337 338 338 338 339 339 339 339 338 339 339 339 339 338 338 338 339 340 340 339 339 339 339 340 339 339 339 339 338 337 337 337 337 337 336 335 334 332 330 330 331 332 331 331 334 336 338 336 333 334 334 331 332 332 333 337 337 336 336 336 336 336 335
343 343 343 342 341 342 342 341 339 339 338 338 338 338 338 338 340 339 339 338 338 338 338 338 337 338 338 338 338 338 338 338 338 338 338 338 338 338 339 339 339 337 338 339 339 339 338 338 338 337 336 336 336 336 337 337 336 335 333 331 331 330 330 332 334 335 338 339 339 337 334 333 333 332 332 332 332 333 333 333 335 335 335 336 337
343 343 342 341 340 341 341 340 339 338 337 337 337 337 337 337 339 338 338 338 339 338 338 338 337 338 337 337 336 337 337 337 337 338 338 338 338 338 339 338 338 337 338 338 339 339 338 338 337 336 336 335 335 336 336 336 336 334 330 330 331 330 329 331 335 337 338 339 338 336 335 334 332 332 333 334 333 331 333 335 336 337 336 337 337
342 342 341 341 341 340 340 340 339 338 337 336 336 336 336 337 338 337 338 338 338 338 338 337 338 338 337 336 336 336 336 336 336 337 338 339 339 338 338 338 338 338 338 338 338 338 337 336 335 335 335 335 334 335 335 334 335 333 329 329 330 330 330 331 335 338 337 337 337 334 336 335 331 332 335 336 335 334 336 337 338 338 338 337 337
342 342 341 342 341 339 339 340 340 339 339 337 335 335 335 336 337 337 337 337 337 337 337 337 337 337 337 337 336 337 337 337 336 337 338 338 338 338 337 337 338 338 338 338 338 338 337 336 334 333 333 332 331 331 332 332 333 331 328 330 332 333 334 335 337 337 337 337 336 336 337 336 330 331 335 335 336 336 337 338 338 338 338 337 337
342 342 341 342 341 338 339 339 340 339 339 338 336 335 336 337 337 336 336 337 337 337 338 337 337 337 337 337 337 338 337 337 337 336 336 335 335 336 337 338 338 338 338 338 338 338 337 336 334 332 331 330 329 330 331 332 332 330 329 332 336 338 337 339 338 336 336 336 336 337 337 336 331 333 336 336 337 337 338 338 337 337 337 337 337
342 342 342 342 340 338 338 338 338 339 338 338 336 336 335 336 336 336 336 337 338 338 338 338 338 337 337 338 338 338 337 337 337 336 333 331 331 333 336 337 337 338 338 338 338 337 337 336 334 333 333 332 332 332 333 334 333 331 331 335 338 338 338 338 336 333 334 335 336 337 337 337 335 336 337 336 336 336 336 337 336 336 337 336 336
342 342 342 341 339 337 337 337 337 337 337 337 337 336 335 335 335 335 336 337 338 338 338 338 338 338 338 338 337 337 336 337 336 334 332 330 329 330 333 335 336 336 337 337 338 337 336 335 334 335 334 333 333 334 334 334 333 331 334 337 337 336 336 335 334 333 334 335 335 336 337 337 337 337 335 333 333 333 332 333 334 334 335 334 335
342 342 341 341 338 337 337 337 337 337 337 338 338 337 337 336 336 337 337 338 338 338 338 337 337 337 337 337 336 335 335 334 331 329 329 329 328 329 330 331 333 333 334 335 336 336 335 334 334 334 333 332 332 333 333 333 332 332 336 337 334 334 335 332 334 335 334 335 335 336 337 337 336 336 335 333 333 333 332 333 334 334 334 332 334
342 342 341 339 337 337 337 337 338 338 338 338 339 338 337 337 337 338 338 338 337 337 337 337 337 336 336 335 334 333 330 326 322 322 322 323 323 324 324 326 328 329 330 331 332 332 332 332 332 331 330 331 331 333 333 332 330 333 336 335 333 334 334 332 334 335 334 335 335 335 336 336 335 335 336 335 336 336 335 335 335 336 336 333 334
341 341 338 336 335 337 338 337 337 337 337 337 337 337 337 337 337 337 337 337 336 336 336 336 336 335 333 330 330 327 323 319 318 319 319 319 319 319 319 320 321 322 324 327 328 329 330 330 330 330 330 330 331 332 333 332 330 333 336 334 333 333 334 333 334 333 332 334 335 335 335 335 335 335 336 335 336 336 335 336 336 336 336 334 334
341 340 337 334 334 336 338 337 337 336 336 337 337 338 338 337 337 337 337 336 335 334 334 334 334 333 329 325 323 321 319 319 320 320 320 320 320 319 319 319 319 319 320 321 324 327 328 329 329 329 329 329 330 331 332 331 330 332 334 333 332 333 334 334 334 333 332 333 334 335 334 334 335 335 335 335 335 336 335 336 336 336 335 335 335
339 340 338 335 335 335 336 336 337 336 336 336 336 337 337 336 336 337 336 335 333 333 332 332 333 331 327 324 322 321 321 321 321 321 321 321 321 320 320 321 321 321 320 319 321 324 327 328 328 329 329 328 329 330 331 331 331 333 333 333 332 332 333 333 334 334 332 332 334 334 334 335 335 335 336 336 336 335 335 335 335 335 335 334 335
340 340 339 337 337 336 336 335 335 335 335 334 334 335 335 335 335 335 335 334 334 333 333 333 333 330 328 327 325 324 323 322 322 322 322 321 321 321 320 320 320 321 321 321 320 321 324 326 328 328 329 329 328 329 330 330 332 334 332 331 331 331 333 333 333 334 332 333 334 334 334 335 334 334 334 335 335 335 334 334 335 335 334 333 334
340 339 339 339 338 337 336 334 334 333 332 333 334 334 334 334 333 334 334 334 334 333 333 333 333 331 329 326 324 323 322 322 322 321 321 321 320 319 319 319 318 319 319 321 321 320 320 324 327 328 328 329 328 328 329 330 333 334 332 330 330 331 332 332 332 332 332 333 334 334 334 335 334 334 334 333 333 333 334 333 334 334 334 334 333
340 339 339 338 338 338 337 335 334 333 332 333 334 333 333 333 333 333 332 332 332 333 333 333 332 330 327 325 324 324 324 325 324 322 320 319 318 316 315 315 315 315 317 319 321 321 319 320 324 327 328 329 328 327 328 330 331 332 331 330 329 330 331 331 331 331 332 333 334 334 334 334 334 335 334 334 333 333 334 333 333 333 333 333 334
339 338 338 338 338 338 338 337 336 336 334 334 334 334 334 334 333 332 331 329 330 329 330 330 329 327 325 326 328 328 327 326 327 325 321 317 315 314 313 312 312 312 313 316 319 321 320 319 321 324 327 329 328 326 327 330 329 329 331 330 329 330 330 331 330 331 332 333 332 332 333 332 332 333 333 333 334 333 333 332 332 332 332 332 332
338 337 338 339 338 337 339 338 337 337 337 336 335 335 335 335 333 331 328 327 326 326 327 326 325 325 325 328 329 330 328 327 328 327 323 317 313 313 312 312 311 310 311 313 316 320 321 319 319 321 324 327 328 326 326 328 328 328 329 329 329 330 330 329 329 329 330 331 332 332 331 330 330 331 332 331 332 331 331 332 331 331 331 331 331
339 337 337 337 337 337 338 337 336 335 336 337 336 335 334 333 331 329 328 327 326 325 326 326 327 327 327 329 329 330 329 327 327 326 325 319 314 312 311 310 310 310 310 313 316 318 320 319 320 321 323 327 328 325 325 327 327 328 328 328 328 328 327 326 326 328 329 330 331 331 331 330 330 330 330 330 329 329 329 329 329 329 329 329 327
338 337 337 336 336 336 336 335 334 334 336 336 336 334 333 331 329 327 326 326 327 326 327 328 329 328 328 329 328 327 327 326 323 324 325 322 319 316 314 312 313 314 312 312 315 318 319 319 321 322 324 327 327 325 325 326 327 326 328 328 327 326 325 324 326 327 329 330 330 330 330 329 329 329 329 329 328 328 328 328 327 327 327 327 324
336 336 337 337 336 336 336 334 332 334 336 335 334 333 332 332 330 329 328 327 328 329 328 328 329 329 328 326 326 324 324 324 321 321 324 323 322 321 320 317 318 321 316 313 314 316 318 320 322 323 325 328 328 326 325 327 327 326 326 327 326 326 325 325 326 327 329 329 329 329 329 329 328 328 328 328 328 328 328 328 328 328 328 328 327
335 336 338 337 336 335 335 334 332 333 334 333 332 331 331 331 331 329 329 328 328 328 327 326 326 326 325 324 324 323 323 323 321 321 322 322 322 322 322 321 321 322 321 319 316 316 316 318 320 324 326 329 330 328 327 327 326 326 326 326 326 326 326 325 326 327 328 328 328 328 328 328 327 327 327 327 327 327 328 327 327 328 328 328 328
336 337 338 337 334 334 334 333 333 332 332 331 330 330 328 328 328 327 327 327 325 326 325 324 324 324 323 323 322 322 322 322 320 321 321 321 322 323 323 323 322 322 323 322 321 321 319 317 317 321 324 328 330 329 330 329 327 327 326 326 327 327 326 326 327 327 328 328 328 327 327 327 326 326 326 326 326 326 326 326 326 326 327 327 327
336 337 337 337 335 335 334 333 332 331 330 329 328 327 326 325 325 324 324 324 323 323 324 324 323 323 323 322 321 321 321 320 319 319 320 319 320 322 323 322 322 322 322 322 321 323 323 320 317 319 321 327 330 328 330 330 328 328 327 327 328 327 327 327 328 328 329 328 327 327 327 327 326 326 325 325 325 325 325 325 325 326 326 326 327
337 337 336 337 336 335 334 333 331 330 329 328 327 326 325 324 324 323 322 323 323 322 323 322 322 322 321 321 321 321 321 320 319 318 318 319 319 320 321 321 321 321 321 322 322 322 323 322 320 320 322 326 328 327 329 328 327 327 327 329 328 328 327 327 328 328 330 329 328 328 326 326 326 326 326 326 325 325 325 325 325 326 326 326 327
337 336 335 335 335 335 334 332 331 330 328 327 326 324 324 323 322 322 321 322 322 322 321 321 320 321 321 321 321 321 320 320 319 318 318 318 318 319 319 320 321 319 320 322 322 322 321 321 321 321 322 324 325 325 326 326 326 327 327 328 328 327 327 327 328 329 329 329 328 328 326 325 325 325 325 326 326 325 325 325 325 325 325 326 327
336 336 337 336 334 334 333 331 330 329 327 325 324 324 323 322 322 322 321 322 322 321 321 320 320 321 321 321 321 320 320 319 318 317 317 318 318 319 319 319 320 320 320 322 322 321 321 321 321 321 321 321 323 325 325 325 326 327 327 327 326 326 326 326 327 327 327 327 328 327 325 324 324 324 324 325 326 325 325 325 325 325 325 325 326
337 336 337 336 334 333 332 330 329 327 326 325 324 323 322 322 321 321 321 321 321 320 320 320 320 321 320 321 321 321 320 319 318 316 316 317 318 319 319 318 319 320 320 321 322 322 322 322 321 321 321 320 322 324 325 325 326 327 327 325 324 324 325 325 326 326 325 324 325 326 325 323 323 325 325 326 325 325 326 326 325 325 325 325 325
337 335 335 336 335 332 331 330 329 326 326 325 323 322 321 321 321 320 320 320 320 320 320 320 320 320 320 321 321 321 320 318 318 316 315 316 317 317 319 319 319 320 320 320 321 321 321 322 321 321 321 321 322 323 323 324 324 325 325 324 323 323 324 324 325 325 324 321 322 324 324 322 322 323 324 324 325 325 325 325 325 325 324 324 324
336 335 334 334 333 331 330 329 327 326 325 324 323 322 321 321 321 320 320 320 319 319 319 320 320 320 321 321 321 320 319 317 317 316 314 315 316 316 318 319 319 319 320 320 320 320 320 320 321 320 321 321 323 323 322 323 323 323 322 322 321 320 322 324 324 325 323 321 320 320 321 320 320 321 321 322 322 323 323 322 322 322 322 322 322
335 334 333 332 331 330 329 328 327 326 324 323 322 321 321 320 320 320 319 319 319 319 319 319 320 320 321 321 321 319 318 317 316 315 314 313 314 315 316 318 319 319 319 320 320 319 318 319 320 320 320 321 322 323 322 322 321 321 320 320 319 319 320 321 324 325 324 323 322 321 320 319 318 318 318 320 320 320 320 320 319 319 319 319 319
333 332 332 331 330 329 328 327 326 325 324 323 322 320 320 320 320 319 319 319 319 319 319 320 320 321 321 321 320 318 316 316 315 314 313 312 312 314 316 317 318 318 319 320 319 319 318 318 320 320 319 320 320 321 322 322 321 321 320 319 318 318 318 319 320 322 323 324 324 323 322 320 318 316 315 316 316 316 315 314 314 314 314 314 314
331 331 331 330 330 328 328 326 325 324 323 323 322 320 320 320 319 319 319 319 319 319 319 320 321 321 321 321 320 317 315 315 315 313 312 311 311 313 315 316 316 316 318 319 319 320 320 319 319 320 319 319 320 321 322 321 321 320 320 319 319 318 318 318 318 319 320 321 322 322 321 320 318 316 314 313 312 310 309 307 306 306 305 305 306
331 331 331 329 328 328 327 325 324 323 322 321 320 319 319 319 319 319 319 319 319 320 320 320 320 321 321 320 319 316 314 314 314 312 311 310 310 313 315 315 315 316 317 318 319 320 321 319 319 319 319 319 320 321 321 321 321 321 321 320 319 319 318 318 318 318 318 318 318 318 318 317 316 315 315 313 311 309 306 302 302 301 300 298 298
331 331 330 329 328 327 325 324 324 322 321 320 319 319 319 319 319 319 320 320 320 320 320 320 320 320 320 320 319 315 312 313 313 312 310 310 311 313 314 315 315 315 317 319 319 320 321 319 318 318 318 318 319 319 320 320 321 321 321 320 319 318 318 317 317 317 317 316 315 315 314 313 313 313 313 312 311 309 306 302 302 303 301 297 294
330 330 329 328 327 325 325 324 323 321 320 319 319 319 319 319 319 320 320 320 320 321 320 320 320 320 320 320 319 315 312 311 312 312 311 311 312 313 314 315 316 315 317 319 319 320 320 320 319 318 317 317 317 318 318 319 319 319 319 319 318 317 316 315 315 314 314 314 314 313 312 312 312 311 310 310 308 307 306 305 304 304 303 299 296
329 328 327 327 326 325 324 323 322 320 320 319 319 319 319 319 320 320 320 320 321 321 321 320 320 320 320 319 317 314 312 311 312 312 311 311 312 314 314 314 316 317 317 319 319 320 320 320 319 318 317 316 316 316 316 317 317 317 317 317 317 316 315 314 314 313 313 313 312 312 311 311 310 308 308 308 305 304 305 305 306 305 303 302 300
329 328 327 326 325 324 323 322 320 319 319 319 319 319 319 319 320 320 321 321 321 321 320 320 320 320 320 318 315 312 311 311 311 311 311 312 313 314 314 313 315 317 319 319 319 319 318 318 317 316 316 316 315 315 315 315 315 315 315 314 314 314 314 314 313 313 312 311 311 310 310 309 307 306 306 306 305 304 303 303 304 303 303 302 302
328 327 326 325 324 323 323 321 320 319 319 319 319 320 320 320 321 321 321 321 321 321 321 321 321 320 320 319 317 314 310 310 311 311 311 312 313 314 314 313 314 316 318 320 319 319 318 317 316 315 315 315 315 314 314 313 313 313 313 312 313 312 312 312 312 311 311 310 309 308 308 307 306 306 305 305 305 305 304 303 302 300 301 303 303
328 326 325 324 324 323 322 321 319 319 319 319 319 319 319 320 321 321 321 321 321 321 320 321 321 320 321 320 319 315 310 309 310 311 311 311 313 314 314 314 314 314 316 318 318 318 317 316 316 316 315 315 315 315 315 315 313 313 314 312 311 310 311 310 309 309 308 307 306 305 305 305 306 306 305 304 304 304 303 304 302 298 299 302 303
327 326 325 324 324 323 322 320 319 319 319 319 319 320 320 320 321 321 321 321 321 320 320 321 321 321 321 320 318 315 310 308 309 310 311 311 312 314 314 314 314 314 315 316 317 317 317 317 316 316 315 316 316 316 317 318 316 315 315 314 313 312 310 310 308 307 306 306 305 305 303 303 304 304 305 305 304 303 303 303 303 300 298 300 302
327 326 325 324 323 322 321 320 318 319 319 319 320 320 320 320 320 321 321 321 321 320 320 320 321 321 321 320 318 315 311 309 308 309 311 312 311 313 314 313 313 313 313 314 315 316 317 317 316 315 314 313 314 315 315 316 316 317 318 318 318 317 315 313 309 306 305 305 304 303 303 302 302 303 304 305 304 303 303 303 303 303 300 299 301
327 326 325 324 323 322 322 320 318 319 319 318 320 319 319 320 320 321 321 321 321 320 320 320 320 321 321 320 319 316 313 310 309 310 311 312 311 312 313 313 313 312 311 311 312 313 314 316 316 317 316 314 314 313 311 311 313 315 319 321 322 321 320 317 311 307 304 303 303 302 302 302 301 302 302 303 303 302 302 303 303 303 301 300 301
326 326 325 323 323 322 322 320 318 319 319 318 319 319 319 320 321 321 322 321 321 321 320 320 321 321 321 321 320 318 314 311 309 310 311 311 311 311 311 312 313 312 310 310 310 310 311 312 314 315 314 313 313 311 308 308 309 310 314 318 321 322 319 314 313 312 306 303 304 302 302 302 301 301 301 301 303 302 301 301 302 302 302 301 301
326 326 325 323 322 322 322 320 318 319 319 318 319 320 320 321 322 322 322 322 321 321 321 321 321 321 321 321 321 320 317 313 311 310 311 311 311 310 310 310 311 310 309 309 309 310 311 312 312 313 312 313 312 311 309 308 308 308 308 311 312 313 312 310 314 317 312 308 306 304 302 302 301 301 301 301 301 303 301 300 301 301 301 301 300
326 326 325 324 323 322 322 320 319 319 318 319 320 320 321 321 322 323 322 322 322 322 321 321 321 321 321 322 321 320 319 317 313 311 311 311 311 311 310 309 309 308 308 309 308 309 310 312 312 313 313 314 313 312 311 310 308 307 307 307 305 305 306 308 312 313 314 313 309 305 303 302 303 301 301 301 300 302 302 301 300 301 301 300 300
327 326 325 324 323 322 321 320 320 319 318 319 320 320 321 322 322 323 322 322 322 322 321 321 321 322 322 322 322 321 321 319 315 312 311 310 309 309 310 309 308 308 308 309 309 309 310 310 311 312 313 313 313 312 312 311 309 308 309 308 307 306 303 305 307 308 312 314 312 309 305 302 304 303 302 302 300 301 302 301 300 300 300 299 299
327 326 325 324 323 322 321 320 321 320 318 319 321 320 321 322 322 322 322 322 323 322 321 321 321 322 323 322 322 321 321 320 318 314 312 311 309 308 309 308 307 307 307 308 308 308 309 309 309 309 310 311 311 311 310 310 309 309 309 309 309 309 306 305 306 306 308 311 312 311 307 304 305 305 304 302 301 300 301 301 301 300 300 299 298
328 326 326 324 323 322 321 321 321 320 318 319 320 320 321 322 322 322 321 322 323 322 320 321 322 323 323 323 323 323 322 321 320 317 314 312 310 308 308 308 307 306 306 306 306 306 308 308 308 308 308 308 308 308 308 308 307 307 307 307 308 308 307 307 306 306 308 309 310 309 306 305 306 306 305 302 301 301 300 301 300 300 299 298 298
328 327 326 325 323 322 322 322 321 320 320 319 319 320 321 321 322 322 321 322 322 321 321 321 321 322 323 324 323 323 322 322 321 319 315 312 310 308 308 308 308 307 307 307 306 306 307 307 306 307 307 306 307 307 307 306 306 306 306 305 305 305 305 307 306 306 308 309 309 308 306 304 305 306 305 303 302 301 300 300 299 299 299 298 298
Wind_Speed
9 8 8 8 9 9 9 10 10 10 9 10 11 10 10 11 10 10 10 10 10 10 11 12 12 12 12 12 12 12 12 12 11 11 11 10 11 11 12 11 10 10 11 11 10 10 10 10 10 10 10 10 10 10 9 9 9 9 10 10 10 10 9 7 7 7 8 9 9 10 11 10 10 11 11 10 10 11 12 11 10 10 11 12 11
10 8 8 9 10 10 10 10 10 10 10 10 10 10 10 11 11 10 9 9 9 10 10 11 12 12 12 12 12 12 12 12 12 11 11 11 11 11 11 11 10 10 10 10 10 10 10 10 10 9 10 10 10 9 9 9 9 10 10 11 10 10 8 8 8 9 8 8 10 12 12 10 10 10 10 9 10 10 12 13 13 12 13 13 12
11 11 10 10 10 10 10 10 10 10 10 10 9 9 10 11 11 9 9 9 9 10 10 11 11 12 12 12 12 12 12 12 12 12 11 11 11 11 11 11 10 10 10 10 10 10 9 9 9 9 10 10 9 9 9 9 10 10 11 11 11 10 8 8 9 9 8 9 11 12 11 10 9 10 11 10 10 10 11 12 13 12 12 12 12
13 13 11 10 10 11 10 10 11 10 10 10 9 10 10 11 11 9 10 9 9 10 10 11 11 11 11 12 12 12 12 12 12 12 12 12 12 12 11 11 10 10 9 9 9 9 9 10 9 9 10 10 9 9 9 10 10 11 11 11 10 9 8 8 9 9 9 10 11 10 10 10 10 11 12 11 11 11 12 12 12 12 11 12 12
13 14 11 10 10 10 10 11 11 10 10 10 9 10 10 11 11 9 10 9 10 10 10 11 11 11 12 12 12 12 12 12 12 12 12 12 12 11 11 10 10 10 9 8 9 9 9 10 10 10 10 9 9 9 9 10 10 11 11 10 10 10 9 10 10 9 10 9 9 10 12 12 10 12 12 12 13 12 12 12 13 12 11 12 12
12 13 12 9 9 10 10 10 11 10 10 9 9 10 11 11 10 10 10 10 10 11 11 11 11 11 11 12 12 13 13 12 12 12 12 12 11 11 11 11 11 10 10 9 9 9 9 10 10 10 10 9 9 9 9 10 11 11 11 12 13 13 12 13 12 10 8 7 8 12 14 11 11 13 13 12 13 13 13 13 13 12 12 12 12
11 11 11 9 9 10 9 10 11 11 10 9 9 10 11 11 10 10 10 10 11 11 11 11 10 11 11 11 12 13 13 13 13 13 12 11 11 11 11 11 11 11 10 10 9 9 9 10 10 10 10 10 9 9 10 11 11 11 11 12 13 13 13 13 12 10 9 10 11 14 14 11 11 14 13 12 12 12 13 13 13 13 13 12 12
12 11 10 9 9 10 9 10 11 11 10 9 9 9 10 10 10 10 11 11 11 10 10 10 10 11 11 12 12 12 12 13 13 13 13 12 12 12 11 11 11 11 10 10 9 9 9 10 10 11 11 10 10 10 11 11 11 11 11 12 13 14 14 14 13 12 12 14 14 14 14 13 12 13 12 12 12 12 12 12 13 13 13 13 13
13 11 11 9 9 11 9 10 11 11 10 9 9 9 9 10 10 10 11 11 11 11 10 10 11 11 11 11 11 12 12 13 13 13 13 12 12 12 12 11 11 10 10 10 10 10 10 10 10 11 11 11 11 11 11 11 11 11 11 12 14 16 16 14 13 14 16 17 15 14 15 14 12 11 11 12 12 12 12 12 12 13 13 13 13
13 12 12 9 9 11 11 11 11 11 9 9 10 10 10 10 10 10 10 11 11 10 11 11 11 11 11 11 11 12 12 12 13 13 13 13 12 12 11 11 11 11 10 10 10 10 11 11 11 11 11 12 12 11 12 11 12 11 11 13 15 18 17 13 14 16 18 17 16 16 14 13 12 11 12 12 12 12 12 12 12 12 12 13 13
13 12 12 10 11 12 12 12 12 11 9 10 10 10 10 10 10 10 10 10 10 10 10 11 11 11 11 11 11 11 12 13 14 14 15 14 14 13 12 11 10 10 10 10 10 11 11 12 12 12 12 13 13 12 12 12 12 10 11 14 16 19 17 13 15 18 18 18 17 15 13 12 12 11 11 11 11 11 11 12 12 12 12 12 13
13 13 12 11 12 12 12 12 11 10 10 10 10 10 10 10 10 10 10 10 10 10 10 10 10 11 11 11 11 12 12 13 14 15 15 15 15 14 14 13 12 12 11 10 10 10 11 11 11 11 12 12 13 13 13 13 12 9 12 15 17 19 17 14 18 20 20 20 17 15 14 14 13 12 11 11 11 11 11 11 11 12 12 12 12
14 13 13 12 11 11 12 11 11 10 10 11 10 10 10 10 10 10 10 10 10 10 10 10 10 10 11 11 12 12 12 12 12 12 13 13 13 13 13 14 14 14 13 11 9 8 9 9 10 10 10 11 12 13 13 13 11 9 12 14 16 19 18 15 18 21 21 19 18 16 16 16 15 14 13 13 12 12 12 11 11 11 12 13 13
14 14 13 13 11 10 10 10 10 10 10 11 11 11 10 10 10 10 10 10 10 10 10 10 10 10 10 11 11 11 10 10 10 11 11 12 12 12 12 12 12 12 13 13 11 9 7 7 8 8 9 11 12 12 12 13 11 10 13 14 15 20 20 16 17 19 19 18 18 17 17 16 15 14 14 14 13 13 13 12 11 11 12 13 13
14 14 14 13 12 11 10 9 9 10 10 11 12 12 12 11 10 10 10 10 10 10 10 10 10 9 10 10 10 10 9 10 10 11 11 11 11 11 11 11 10 10 11 12 12 11 8 6 6 7 7 10 12 12 13 13 13 12 15 18 18 21 20 16 16 18 18 18 19 18 18 16 15 15 15 14 15 15 15 14 13 13 13 14 15
14 15 16 14 12 12 11 9 9 10 11 12 12 13 12 11 10 10 10 10 10 10 10 10 9 9 9 9 10 10 10 10 11 11 11 11 11 11 10 10 9 9 9 9 10 11 10 8 6 5 6 8 11 12 13 14 15 14 16 18 18 20 19 16 18 19 18 19 19 18 17 16 16 16 15 16 16 16 16 16 16 15 15 15 15
14 15 16 14 12 12 11 10 10 10 12 12 12 12 11 10 11 11 11 10 10 10 10 9 9 9 9 10 11 11 11 11 12 12 12 12 11 11 10 9 9 8 7 7 8 9 10 9 7 5 5 7 10 12 14 16 17 16 16 17 17 18 18 18 19 19 19 19 19 19 19 18 18 18 17 18 19 18 18 19 18 17 17 17 16
14 14 14 14 12 11 10 11 10 10 11 12 11 11 10 10 11 12 11 10 10 9 9 9 9 9 9 11 11 10 12 13 13 13 13 13 12 11 10 9 9 8 6 6 6 7 8 8 8 6 5 7 9 12 15 17 18 18 16 17 17 18 17 18 19 19 19 20 20 21 20 20 20 20 21 21 21 21 21 22 21 21 22 21 20
14 14 14 14 12 11 10 10 10 10 10 10 11 10 10 10 11 12 11 11 11 10 9 9 8 8 8 9 10 8 10 14 13 13 14 14 13 11 10 10 9 7 6 5 6 6 7 7 8 7 6 8 10 13 17 17 17 18 17 16 16 17 18 18 19 19 19 20 20 21 20 21 21 22 22 23 23 23 23 23 24 24 24 23 22
13 13 13 13 12 11 10 10 10 11 11 11 10 10 11 11 12 12 12 12 11 10 8 8 8 8 9 8 7 6 6 9 9 10 12 13 14 12 10 10 9 8 6 5 6 6 6 6 8 9 8 9 11 14 16 16 16 14 14 15 15 17 18 18 19 20 19 20 20 21 21 22 22 22 23 23 23 24 24 24 25 25 24 24 23
12 10 10 12 12 11 11 12 12 12 12 11 11 11 11 11 11 11 10 10 9 9 8 6 6 6 8 7 6 5 4 6 8 6 7 10 12 13 12 11 11 11 9 6 6 6 6 6 7 9 9 9 11 13 14 14 14 12 13 15 16 17 19 18 19 20 20 20 21 21 21 22 22 22 22 22 23 23 23 24 24 24 24 24 23
14 11 10 10 11 11 12 14 13 13 11 10 10 10 11 9 8 7 7 8 4 5 6 5 5 5 6 6 6 7 5 6 10 6 3 5 9 11 13 11 11 11 11 9 7 6 5 6 6 7 9 10 11 12 12 12 11 11 13 16 15 18 20 19 19 20 21 21 21 21 21 22 22 21 22 21 22 22 22 22 22 22 22 22 22
14 13 11 9 11 10 12 14 13 13 11 9 8 7 8 7 6 5 5 5 3 4 4 5 7 7 6 6 6 6 6 7 8 7 3 4 6 7 10 11 10 10 9 8 7 7 5 5 6 6 10 11 9 10 10 9 10 11 13 15 15 17 20 19 19 19 20 20 20 21 21 21 21 21 21 21 21 21 21 21 21 21 20 21 21
13 14 13 12 14 11 10 12 11 11 9 7 7 6 6 5 5 3 2 4 5 6 5 5 6 6 5 4 6 5 5 7 7 7 5 4 6 4 6 9 9 8 7 6 5 4 3 2 7 8 9 10 8 8 7 6 7 9 11 15 15 16 19 18 18 19 18 19 19 20 21 20 20 20 19 20 20 20 19 19 20 20 19 19 19
13 14 14 14 15 12 10 9 9 8 8 7 6 6 6 6 6 3 4 3 4 6 8 9 5 5 6 5 6 5 5 7 6 7 7 5 5 3 4 6 6 6 7 7 5 4 3 2 7 11 9 10 10 7 6 6 6 8 12 16 15 16 19 18 18 18 18 18 18 19 19 19 18 18 19 19 19 18 18 18 19 20 19 18 17
12 14 16 15 14 13 11 10 8 7 7 6 5 6 6 7 7 4 6 5 4 6 9 11 7 7 9 7 6 6 5 7 6 7 7 6 6 5 5 5 5 4 6 7 6 7 4 1 0 4 9 13 12 7 5 5 8 13 15 16 16 17 18 18 18 18 18 18 17 18 17 17 17 17 18 18 18 17 18 18 19 19 19 18 17
12 14 16 15 15 14 11 10 9 7 6 5 6 6 5 7 6 3 5 6 7 9 10 10 8 7 7 8 9 9 7 7 7 7 7 7 7 7 7 5 5 5 6 7 5 8 8 6 6 4 4 9 9 7 5 5 10 14 15 15 17 18 18 18 17 17 18 17 17 17 16 15 15 15 16 17 17 17 18 18 18 19 19 18 17
13 13 13 13 14 14 12 10 8 6 4 5 7 7 6 6 5 4 5 5 6 9 8 8 8 7 8 9 10 11 10 9 8 8 7 7 7 7 7 6 7 7 6 7 6 6 6 7 6 5 4 3 5 7 7 9 10 12 13 14 15 16 18 18 16 16 15 15 16 14 15 15 15 15 15 16 16 17 18 18 18 19 19 18 17
14 13 12 12 12 13 11 9 7 5 6 7 7 7 6 5 5 6 6 6 8 8 7 8 9 8 9 10 10 10 10 9 9 9 7 7 7 7 7 6 7 8 6 5 6 6 5 4 4 3 3 4 6 7 8 11 10 10 12 12 12 15 18 19 17 16 13 12 13 12 13 14 14 14 15 15 15 16 16 17 17 18 18 17 17
13 14 14 13 13 12 11 9 7 6 8 7 6 6 5 6 7 5 5 8 8 7 7 9 10 9 9 10 10 9 9 8 8 8 7 7 7 6 7 7 6 7 7 5 5 8 7 5 6 7 7 7 7 5 7 11 12 11 11 12 12 15 20 20 17 16 13 10 11 10 10 10 11 11 12 13 13 13 14 14 15 15 15 15 15
13 15 15 14 15 13 11 10 8 7 6 7 8 6 4 7 9 7 7 8 7 6 9 10 10 9 9 10 10 9 9 9 7 8 7 7 7 7 7 7 7 6 7 6 5 7 7 7 8 9 9 8 6 6 6 9 11 9 7 9 10 12 18 19 16 16 13 12 12 10 8 8 8 8 8 9 9 10 10 11 12 12 13 14 14
14 16 16 15 14 12 12 10 8 7 5 7 9 6 5 8 8 8 8 7 8 8 8 9 10 9 9 10 10 9 10 8 7 8 8 7 7 7 7 7 7 6 6 6 6 5 5 6 7 7 9 8 7 11 10 8 10 10 9 11 12 13 15 15 16 15 13 13 12 11 10 9 9 8 7 7 7 8 8 9 10 10 11 12 13
14 16 16 15 13 12 12 10 7 6 5 5 6 7 8 9 9 8 7 7 9 9 8 9 9 9 9 9 10 10 10 8 8 8 8 7 7 7 7 6 7 6 4 5 5 4 4 6 7 6 7 8 7 10 11 10 10 9 9 11 12 12 11 10 11 12 13 12 11 10 9 9 10 10 9 8 8 8 8 8 8 8 9 9 9
16 15 15 14 13 12 10 9 7 6 5 3 6 10 12 11 9 8 7 8 11 9 8 9 9 10 10 9 10 10 10 9 8 9 9 7 7 7 7 7 7 6 4 6 6 5 5 6 6 5 7 8 8 9 10 9 7 7 11 11 10 9 8 9 8 8 10 11 10 10 9 9 10 10 9 9 10 10 10 10 9 9 8 8 7
16 15 14 13 12 11 10 9 7 6 7 7 7 11 12 12 10 8 9 10 9 6 6 7 8 10 10 10 10 10 10 9 8 9 9 8 7 8 8 8 7 5 6 8 7 4 6 7 7 6 8 10 10 10 10 9 8 7 11 12 11 11 10 9 8 9 9 8 7 7 8 8 9 9 7 8 10 10 11 11 10 10 10 9 8
16 16 13 13 12 10 10 9 7 6 8 9 9 10 11 12 10 8 10 9 7 7 7 8 9 10 11 11 10 10 10 9 9 9 9 8 8 8 8 8 7 7 8 9 8 6 6 9 9 8 10 11 11 11 11 11 11 9 9 11 10 10 9 8 9 10 8 6 6 6 6 7 7 7 7 8 10 10 10 11 10 11 12 11 9
17 17 14 13 12 9 10 9 7 6 7 10 10 10 12 12 10 10 9 7 7 8 8 10 10 10 10 10 10 10 10 10 9 8 9 8 8 8 8 8 7 8 9 9 9 8 7 7 9 9 10 11 11 11 10 10 11 10 9 9 8 8 9 9 9 8 7 6 7 7 6 7 7 6 5 5 7 8 9 9 8 9 12 12 11
16 17 15 14 12 10 10 9 8 8 10 12 11 11 13 12 11 10 8 7 7 9 9 10 10 10 10 9 10 10 9 10 9 8 9 8 8 9 8 7 7 7 7 9 9 9 8 7 9 10 10 11 11 11 10 10 11 10 9 9 7 7 7 8 7 6 7 7 5 5 5 5 5 5 4 3 4 6 6 7 6 8 11 12 12
16 15 15 15 12 11 10 9 10 10 11 12 12 13 13 11 11 9 7 7 9 9 9 9 9 9 10 9 10 10 9 9 9 9 9 9 8 8 9 8 7 8 8 9 10 10 9 8 9 11 11 11 11 11 10 11 12 11 10 9 7 7 6 5 4 4 5 5 4 4 5 5 4 4 4 3 3 4 5 5 5 7 10 12 11
17 14 15 15 13 11 10 10 11 10 12 13 12 14 12 11 12 9 7 8 9 9 9 9 9 9 9 8 8 9 10 9 8 9 9 9 9 8 9 9 8 8 10 10 10 9 9 8 8 9 10 10 9 10 10 10 11 10 8 7 7 6 5 4 4 5 4 3 3 3 3 3 3 3 2 2 2 3 4 3 3 5 6 9 9
17 16 15 14 14 13 11 12 13 12 13 14 14 15 12 11 12 11 9 9 9 9 9 9 9 9 9 7 7 7 9 10 9 9 9 8 8 8 9 9 9 9 10 10 9 9 8 8 8 7 7 8 9 8 7 7 8 8 5 4 5 4 3 3 3 4 4 2 1 2 3 2 2 3 1 2 2 2 4 3 5 5 5 5 6
15 14 14 14 14 12 12 14 14 13 14 16 16 16 15 12 11 12 11 9 9 9 10 10 8 9 8 8 8 8 9 10 9 9 9 9 8 8 9 9 9 9 9 9 8 8 7 6 5 6 7 6 7 6 4 3 3 6 8 5 3 3 2 2 2 3 4 3 2 4 5 3 2 1 1 3 3 2 2 3 5 6 6 5 3
16 14 13 14 15 12 11 15 14 13 14 14 13 15 15 13 11 11 12 10 9 10 11 10 8 9 9 9 8 9 9 9 9 8 8 9 9 8 9 9 9 8 9 8 8 7 6 4 3 4 5 5 6 6 5 4 6 2 7 6 3 3 2 2 1 4 4 3 4 4 4 3 3 1 1 4 3 1 1 2 3 6 7 7 2
17 16 16 15 16 14 12 14 14 14 14 11 10 14 13 11 11 10 10 10 10 10 9 8 7 8 9 9 8 9 9 9 9 8 8 9 9 8 7 8 8 8 8 8 7 7 5 5 4 4 3 5 7 5 5 4 7 6 1 2 3 4 1 3 5 5 5 4 5 5 3 2 3 1 1 2 1 1 1 3 3 6 6 7 4
18 16 17 16 16 17 13 15 16 14 15 12 9 13 13 12 12 11 10 10 10 9 9 7 6 7 9 9 8 8 8 9 8 8 8 8 8 9 7 7 7 7 7 7 7 7 6 6 6 5 6 9 9 4 4 5 6 6 4 3 1 2 1 1 3 5 6 6 6 5 3 3 2 1 1 2 0 1 1 3 4 5 4 6 4
18 17 18 16 17 18 15 16 16 13 15 15 11 12 13 12 13 12 10 10 10 9 8 8 6 7 9 8 7 7 7 8 8 8 8 7 8 8 7 7 7 7 8 8 7 7 7 7 6 5 6 7 7 5 5 7 7 7 4 4 3 1 2 3 2 2 5 5 5 5 5 5 4 2 1 2 2 1 3 4 3 4 3 4 4
18 19 20 17 18 19 16 16 16 14 14 16 16 13 12 11 12 12 12 11 11 9 7 8 8 9 8 6 6 6 6 6 6 7 7 7 7 7 7 7 6 7 7 7 8 7 7 7 7 6 6 6 5 6 6 5 6 5 4 4 2 1 2 2 2 1 2 3 3 5 8 7 5 5 3 2 1 2 4 3 3 4 3 4 4
18 19 21 19 18 19 18 17 17 16 15 16 17 15 12 12 13 13 13 11 10 9 8 8 9 9 6 5 7 6 5 5 5 6 6 6 6 6 7 7 6 6 6 7 7 7 7 7 7 7 7 7 8 8 7 6 6 5 5 4 3 1 3 3 4 3 2 2 3 4 8 9 8 8 5 2 2 3 5 4 5 3 3 3 4
20 19 21 20 19 20 19 18 17 19 18 17 17 16 15 14 14 14 14 12 11 10 9 8 8 7 6 4 6 5 5 5 4 4 5 5 6 6 6 6 6 6 6 7 7 7 8 7 8 8 7 8 9 8 8 8 8 6 5 6 6 5 5 5 7 7 4 2 2 1 5 7 8 9 6 3 2 2 4 4 5 2 4 4 5
19 19 20 20 20 21 20 19 18 18 19 19 18 17 17 16 15 14 14 13 12 12 11 10 9 8 6 4 3 4 4 4 4 4 4 4 5 5 5 6 6 6 6 6 6 7 7 8 8 8 7 8 8 8 8 7 8 7 6 6 6 7 6 6 7 9 7 6 4 4 5 3 1 6 8 4 1 2 3 4 4 4 5 5 6
20 22 22 20 20 21 22 21 19 17 18 20 19 19 19 18 16 15 14 14 14 14 13 12 10 8 9 7 5 5 4 4 3 3 3 3 5 6 6 6 6 6 6 5 5 5 6 7 7 7 8 8 8 8 8 7 7 7 6 7 7 5 6 5 6 7 6 6 5 4 8 10 8 2 9 8 2 3 5 4 3 4 5 4 5
Wind_Direction
94 102 112 104 95 92 89 88 89 90 92 94 94 95 93 86 77 72 67 63 60 56 54 54 55 56 56 56 57 57 57 56 55 53 49 43 41 43 44 44 44 42 42 44 45 45 44 44 43 42 43 40 39 39 39 42 43 45 48 51 52 50 50 52 59 62 67 71 68 61 60 62 64 64 62 59 58 56 54 61 72 71 63 57 56
113 109 103 98 98 95 93 93 93 91 89 89 90 91 93 89 80 74 71 67 63 61 58 56 57 58 60 60 60 60 59 59 58 57 55 50 46 46 46 47 45 41 41 43 45 44 42 44 43 41 38 36 38 37 39 38 38 40 42 45 45 44 46 52 60 61 65 68 63 60 59 61 68 67 63 63 62 59 59 65 72 71 66 59 59
118 109 101 102 106 102 96 93 90 89 88 87 87 89 93 90 83 79 76 72 69 66 64 62 61 61 61 61 60 60 60 59 58 57 55 52 47 46 46 45 44 42 42 42 44 44 41 41 40 38 35 36 38 37 38 36 37 39 40 42 41 40 42 53 62 60 58 62 61 62 65 69 75 73 69 68 63 63 62 62 65 68 69 60 57
115 107 104 105 108 103 97 96 93 91 89 87 86 90 93 89 84 82 80 77 74 71 68 65 63 62 60 60 60 59 59 58 57 57 56 52 49 47 46 44 43 42 43 45 45 44 41 39 38 38 37 37 38 37 35 35 38 38 40 42 40 38 39 48 60 58 54 63 67 74 81 77 75 74 70 67 65 66 65 63 63 62 65 61 55
121 113 110 104 106 103 101 100 98 94 89 85 82 88 91 89 86 84 83 80 77 73 70 66 63 61 59 59 58 58 57 56 56 57 58 55 51 49 49 48 47 45 47 49 47 44 40 38 38 37 40 38 36 34 32 35 36 37 40 40 41 42 45 49 56 59 55 62 70 81 83 75 75 75 69 67 67 67 66 63 62 59 60 62 56
120 113 110 106 106 106 104 99 96 94 88 83 77 80 86 87 87 87 85 80 76 72 68 66 64 62 60 60 58 58 57 56 56 57 59 59 55 52 50 51 51 50 50 53 50 46 43 42 40 39 39 38 35 31 32 35 36 37 37 42 52 57 61 55 51 56 63 72 75 80 80 77 80 77 70 67 66 67 67 63 63 62 60 60 57
110 109 106 105 106 109 104 96 95 95 90 85 77 77 80 83 85 85 83 79 75 72 71 70 68 68 66 65 62 60 59 58 57 57 58 59 58 54 52 51 51 53 52 54 53 49 48 47 44 43 43 42 38 35 37 38 38 38 40 54 64 64 62 52 52 64 80 90 82 80 79 77 78 75 70 65 65 67 66 63 63 63 61 59 57
112 112 107 104 106 114 108 102 102 97 92 87 82 79 78 80 82 81 81 80 79 78 77 76 75 74 72 69 66 63 63 60 59 59 59 60 60 58 56 54 53 54 52 54 54 52 51 51 50 49 47 45 41 38 40 40 40 44 50 62 66 63 59 56 68 76 78 85 85 82 82 78 72 71 70 65 64 65 64 61 61 63 62 61 59
112 109 109 103 107 116 112 114 108 98 95 94 90 85 82 79 79 79 81 82 82 82 80 79 77 75 73 70 68 67 66 64 63 61 61 62 62 62 61 59 58 57 55 54 55 55 55 57 57 55 51 46 42 39 41 43 44 50 59 61 61 63 62 68 78 72 66 75 81 81 79 76 72 69 67 64 63 64 65 62 60 61 62 62 61
110 107 109 102 107 110 110 117 110 104 103 100 96 92 89 86 85 84 83 84 83 82 81 80 78 76 73 71 71 71 70 67 65 64 63 63 63 63 63 62 61 61 60 59 59 60 61 62 62 59 54 49 44 42 44 47 52 58 63 62 66 70 69 68 69 66 65 68 73 75 75 76 75 69 65 61 61 62 63 62 62 62 62 63 62
110 112 109 107 109 103 105 111 108 108 108 103 100 97 94 93 93 90 89 88 85 83 82 81 79 77 75 75 75 74 72 70 70 69 68 67 65 63 62 60 59 59 59 59 61 63 65 66 65 61 54 50 46 46 51 55 62 64 63 65 74 79 74 60 60 66 68 68 67 68 70 73 71 66 64 59 59 62 61 62 64 63 63 63 62
114 116 111 111 110 103 102 105 107 110 109 104 99 98 95 97 96 93 92 89 89 87 85 82 80 78 77 76 75 76 76 75 73 71 69 68 66 63 60 57 55 53 52 53 58 63 69 71 69 64 55 50 48 49 57 64 70 70 67 69 75 82 77 63 69 70 66 66 65 65 66 65 63 61 61 61 60 59 61 64 65 66 64 64 63
119 116 112 111 110 106 104 106 109 109 108 105 101 100 99 103 101 96 95 92 91 88 86 84 82 80 77 76 77 78 77 74 70 67 65 63 62 59 56 53 51 50 49 49 52 59 67 73 72 68 59 51 50 53 62 73 77 74 70 70 74 84 83 73 76 73 66 64 64 64 64 62 60 59 59 62 63 60 62 65 67 69 69 68 66
119 114 113 111 110 109 106 108 108 107 107 105 106 107 107 108 103 98 97 94 90 88 88 87 85 79 75 76 76 76 72 67 62 59 58 56 55 52 52 50 48 48 47 47 48 53 60 69 70 69 64 54 52 57 68 79 84 75 69 73 79 87 86 80 80 75 71 69 65 64 63 62 60 60 60 60 63 63 63 65 67 69 70 70 68
120 117 115 112 113 113 107 106 106 104 102 102 104 105 107 107 103 98 95 92 89 89 89 87 84 76 72 73 72 69 65 60 55 51 49 47 46 44 45 45 45 46 46 47 46 47 52 59 66 68 68 60 58 65 75 83 88 78 73 82 83 84 85 80 80 77 73 71 66 63 62 61 58 58 60 61 63 63 63 64 66 68 68 69 69
120 117 114 112 113 113 105 101 101 99 98 99 100 102 105 104 102 96 89 88 87 88 88 86 81 75 70 67 66 64 58 52 46 43 41 39 39 37 37 39 40 44 45 48 48 46 48 52 59 64 68 67 66 73 83 88 91 82 75 82 81 78 81 78 76 76 73 70 67 64 62 62 60 58 58 62 64 64 64 63 65 67 67 67 67
119 119 118 117 115 110 105 103 97 94 99 101 101 104 104 102 97 89 85 86 87 88 88 84 77 72 65 61 57 51 46 42 37 34 35 34 34 34 33 37 38 42 48 51 55 50 47 49 55 67 75 76 77 83 92 93 89 85 78 80 81 77 79 80 78 76 74 72 71 69 66 65 66 65 63 65 66 66 66 66 66 67 67 66 66
119 118 117 118 115 110 110 111 106 100 100 102 103 104 103 99 91 85 84 84 86 87 85 82 76 72 66 58 48 37 36 34 28 24 29 33 32 35 35 38 41 43 53 59 66 62 52 47 54 70 83 88 90 93 100 99 88 84 83 80 79 79 79 79 78 76 74 72 73 73 70 68 69 68 68 68 67 67 67 68 68 67 67 68 67
113 116 120 119 120 118 117 117 119 116 107 105 105 105 103 96 89 85 85 84 83 81 81 79 72 65 59 57 50 36 38 38 27 17 23 31 31 34 37 40 46 49 59 71 78 75 63 51 58 72 89 99 101 105 105 101 92 86 85 80 79 82 80 78 79 78 76 75 74 74 73 70 69 69 68 68 67 66 66 66 66 66 67 68 68
107 119 123 119 126 128 124 124 126 120 111 108 106 104 101 95 91 87 84 80 77 72 70 71 64 56 50 57 61 41 39 44 33 20 19 27 32 34 38 44 52 57 63 79 88 88 78 61 69 81 90 102 108 115 111 103 97 92 84 81 82 83 81 79 81 81 79 78 76 75 74 73 70 69 69 68 67 66 65 65 66 67 67 68 69
109 115 108 109 125 129 125 124 123 118 112 108 106 105 100 96 89 84 80 73 73 66 52 53 50 53 54 45 41 22 18 34 27 24 14 20 31 36 43 52 62 63 61 73 87 94 93 77 83 93 94 106 117 119 115 109 99 87 83 87 90 88 85 82 82 83 82 81 79 76 75 76 74 72 71 69 69 68 66 66 67 68 68 68 68
116 113 103 110 122 126 123 118 113 112 114 111 109 106 101 108 100 88 80 61 63 69 42 31 36 49 58 29 20 16 3 17 19 21 14 10 23 37 48 56 65 62 58 68 79 93 105 100 100 103 99 100 114 121 117 111 101 91 90 92 94 94 90 85 84 84 84 84 82 80 77 76 75 73 71 69 68 67 67 66 67 67 68 68 67
121 118 115 120 118 123 123 117 111 106 111 115 118 116 111 128 127 112 102 69 56 92 50 27 38 35 37 23 23 17 0 17 16 3 346 347 359 27 48 53 56 46 43 52 64 80 96 126 132 124 110 101 110 124 119 108 103 100 96 95 96 96 93 89 88 86 85 85 84 83 81 78 75 73 70 67 67 66 65 64 65 66 66 68 68
129 125 123 126 121 121 114 108 107 106 113 122 130 133 120 110 104 88 85 85 54 66 66 43 38 19 31 45 37 23 10 29 21 3 5 358 345 351 36 44 40 22 16 20 25 52 46 135 167 170 130 113 129 137 141 144 123 104 95 99 102 99 95 93 90 89 88 86 85 84 82 79 75 72 70 68 67 65 64 65 66 66 66 68 69
128 123 125 128 126 123 118 114 113 121 125 125 115 99 89 60 59 27 6 64 50 50 65 61 49 9 24 55 55 44 24 35 29 19 25 19 5 4 33 33 29 13 13 25 5 339 310 247 195 195 173 144 146 144 161 169 136 114 104 105 105 99 97 94 93 91 89 86 85 86 85 83 79 75 72 71 70 67 65 65 65 65 67 68 69
124 124 130 131 132 130 132 132 127 134 132 122 94 72 66 40 42 12 0 40 75 74 68 58 50 18 16 20 47 56 36 39 40 31 28 27 27 25 37 34 33 27 21 34 18 2 357 322 6 192 180 162 150 143 171 167 138 124 112 111 107 101 99 96 95 93 89 86 86 89 92 90 86 81 76 73 71 69 66 65 64 65 67 67 68
126 129 134 133 134 132 134 135 132 140 135 125 107 86 65 43 41 26 20 40 60 65 60 58 55 39 28 15 26 43 40 35 34 38 35 32 33 22 29 34 38 47 25 33 39 22 25 30 32 44 134 158 150 145 147 114 123 121 112 114 111 104 103 100 97 95 92 90 89 92 97 94 89 84 80 77 72 69 67 66 66 65 66 65 65
130 134 139 134 132 133 137 135 132 133 110 98 94 79 62 55 40 45 67 63 60 63 65 81 82 55 44 30 27 33 34 33 27 36 42 36 39 28 29 32 37 52 33 31 45 41 41 42 35 35 65 116 113 115 112 97 103 108 113 120 117 118 115 112 110 105 100 97 93 92 97 96 90 83 79 78 75 73 69 67 66 66 66 64 62
132 138 140 135 136 136 135 130 127 111 81 76 72 59 62 78 65 55 77 84 79 82 81 85 85 66 49 40 39 31 25 31 25 30 42 38 38 35 38 37 34 41 42 36 29 30 42 50 40 26 60 100 91 97 117 117 112 107 119 128 132 138 129 123 123 118 112 105 100 94 95 95 90 86 81 78 77 75 70 68 67 65 64 63 60
136 144 143 140 142 136 132 128 114 89 81 83 71 54 57 88 101 94 89 90 88 91 88 76 71 69 56 42 41 34 27 31 28 31 40 39 39 36 40 46 39 32 42 47 19 22 27 26 38 36 54 88 90 108 133 128 130 136 144 147 149 147 138 130 122 117 114 106 103 99 90 83 83 84 82 80 79 76 72 70 68 67 65 63 61
140 148 145 142 141 138 137 129 106 94 94 92 90 86 73 91 111 116 98 99 107 101 89 79 71 64 54 45 38 32 30 28 31 39 42 43 43 41 40 47 46 33 42 52 28 30 36 34 43 40 47 66 56 60 101 115 120 126 127 130 137 136 135 135 123 112 103 93 95 98 87 69 64 64 67 74 77 75 73 71 68 68 65 61 60
142 144 142 142 138 128 121 115 107 100 86 80 94 111 111 104 107 108 110 122 118 102 92 85 79 66 51 44 37 31 33 31 34 42 47 49 46 48 47 46 48 40 52 58 32 29 55 63 63 54 52 61 45 50 72 75 71 71 70 83 85 85 100 117 121 115 103 97 95 92 85 71 60 49 46 54 64 66 65 65 63 62 60 57 56
143 140 140 142 129 114 110 107 106 98 84 82 108 127 121 113 111 113 131 134 103 85 87 96 94 82 60 43 38 33 33 36 41 43 46 49 49 52 49 51 49 40 57 58 27 32 84 91 83 81 75 78 62 57 72 68 59 59 62 73 69 64 75 84 92 97 95 96 92 85 79 72 59 47 45 46 45 47 48 46 44 45 45 45 45
139 136 139 140 128 124 124 113 107 108 117 102 106 121 121 118 122 130 128 101 88 82 90 99 96 84 68 48 38 34 34 38 43 47 47 49 53 54 51 54 45 39 65 60 45 47 61 84 95 97 96 99 88 78 85 85 79 51 46 65 66 59 79 81 69 73 78 80 82 82 83 75 56 46 47 43 35 30 29 26 22 22 21 20 21
137 139 141 140 133 130 124 115 109 106 111 106 111 121 124 127 130 130 112 98 101 115 120 109 94 80 70 56 40 35 38 39 43 46 47 51 54 54 55 50 46 61 72 53 58 68 44 61 85 81 82 94 88 82 85 87 93 62 46 59 58 54 71 79 82 87 78 73 80 82 86 81 63 55 47 31 27 22 18 18 18 17 12 9 11
141 144 143 137 131 127 123 120 108 96 107 120 132 130 124 125 124 110 101 108 117 108 98 87 75 64 60 56 43 36 38 40 46 47 48 54 54 53 53 49 51 67 65 51 64 81 57 57 71 73 82 95 93 83 77 77 81 73 60 62 58 61 67 62 73 87 87 90 92 82 70 64 65 68 52 32 27 21 16 17 20 18 12 12 20
149 148 148 141 132 133 132 124 108 108 127 132 135 130 124 123 121 116 112 126 126 102 90 79 69 60 54 50 44 39 36 39 45 50 51 52 56 55 51 53 58 61 58 59 73 82 74 62 62 71 83 94 101 100 96 95 92 84 76 73 69 69 72 73 73 79 94 102 98 89 71 60 67 69 56 43 30 25 18 14 19 16 9 11 20
152 148 148 142 138 139 133 124 117 127 135 136 141 131 126 125 124 128 135 134 114 97 91 82 74 69 62 51 46 44 39 40 42 52 58 53 56 57 52 55 65 71 67 69 79 82 81 71 61 70 85 93 101 108 114 119 114 108 99 92 92 85 76 82 80 74 83 87 87 90 89 87 81 67 64 49 32 40 34 20 17 9 4 8 13
150 148 145 140 139 137 130 125 124 137 145 142 138 126 125 129 129 135 138 121 102 95 90 82 76 73 73 60 47 47 45 43 43 47 56 58 56 56 57 57 60 75 82 81 83 83 85 79 66 69 76 82 83 82 86 94 95 96 102 104 104 100 92 96 99 88 77 73 72 73 90 100 86 70 74 59 33 39 48 42 26 13 3 3 7
151 153 147 140 140 135 134 133 134 149 152 142 133 127 134 143 142 142 131 115 106 101 91 81 70 63 69 63 49 48 46 46 50 50 52 56 57 56 60 61 62 70 78 82 83 84 87 87 84 81 84 89 85 80 79 83 88 88 93 104 104 100 104 111 109 103 96 89 76 61 74 89 102 102 81 64 44 21 50 56 11 27 20 2 360
159 159 151 145 142 141 146 141 145 160 155 149 147 144 152 161 155 146 129 119 117 109 96 88 72 59 59 54 50 51 48 47 50 56 59 58 59 60 60 62 66 70 74 80 84 86 87 88 90 89 97 98 90 100 99 97 121 124 108 110 116 111 115 129 122 123 123 111 125 133 110 85 124 134 75 69 77 43 61 36 346 17 44 25 5
163 158 153 153 149 149 152 143 151 172 169 167 166 159 161 164 157 146 138 138 138 125 106 98 85 73 68 58 53 55 57 54 51 56 59 61 61 61 63 63 64 69 74 80 84 88 90 92 94 92 96 85 71 82 84 73 141 164 158 151 148 146 155 168 133 138 141 126 154 150 133 120 120 132 84 123 116 73 62 15 340 347 25 46 23
160 159 157 154 149 149 148 142 157 182 181 182 173 157 155 156 156 151 146 147 134 112 100 100 95 86 78 65 57 56 60 60 58 59 59 62 62 61 64 66 65 69 75 79 81 85 86 80 87 95 103 115 101 74 49 23 354 335 168 163 164 160 188 242 149 125 137 139 154 143 135 129 106 78 188 168 168 70 300 307 312 306 355 33 39
162 166 160 153 149 152 156 150 166 186 182 182 165 147 152 158 157 149 141 136 120 109 108 109 106 101 89 75 64 58 60 61 62 65 63 63 65 66 66 68 73 73 74 79 80 82 77 67 74 73 63 103 114 79 40 31 9 14 61 246 206 164 134 220 181 157 157 155 159 141 129 131 101 125 159 156 246 43 273 294 285 277 333 18 25
171 170 159 160 155 157 166 160 170 188 175 171 165 152 160 162 148 138 135 133 132 140 139 124 114 105 90 76 66 61 63 63 63 66 66 64 66 69 68 70 80 83 80 81 81 85 83 72 75 68 54 73 92 84 47 49 42 45 30 347 220 157 26 263 180 178 192 175 163 149 140 148 118 139 148 131 146 59 8 330 295 271 333 13 12
175 168 160 168 161 159 170 163 171 188 170 166 169 157 157 153 143 141 147 152 158 168 151 133 128 105 89 80 71 66 66 66 65 67 67 66 67 69 72 71 74 83 86 83 77 79 83 78 77 78 74 77 92 106 82 67 63 58 51 55 67 69 354 326 3 186 216 203 180 170 164 162 145 126 124 146 159 338 333 348 321 285 354 7 339
173 167 165 171 162 161 171 166 172 185 174 168 166 161 158 157 155 156 165 173 170 166 148 135 130 112 101 97 83 69 65 66 66 67 67 68 68 68 76 75 70 74 78 79 77 75 78 81 83 86 88 88 93 102 95 81 73 61 54 73 61 41 60 5 12 77 234 227 218 192 170 170 172 160 136 139 182 261 273 329 341 278 305 344 322
174 170 165 168 164 163 169 169 173 179 178 169 162 165 172 173 175 174 178 181 168 155 147 136 126 120 120 109 96 87 74 73 68 69 72 73 73 72 77 78 75 77 74 72 78 81 85 91 95 95 100 101 92 87 85 76 75 68 43 38 5 344 92 55 16 349 274 222 240 212 177 181 187 175 161 162 226 236 235 284 334 270 253 325 320
178 173 163 165 166 165 168 174 177 177 178 172 165 171 182 185 187 186 184 177 167 163 157 147 136 133 136 114 107 104 81 77 75 74 81 78 76 78 81 81 80 87 85 79 84 84 83 90 93 96 104 110 104 96 93 84 74 68 46 31 11 12 58 57 20 358 339 345 292 228 169 179 184 182 179 162 179 229 241 287 327 270 244 316 319
175 168 162 164 168 167 171 178 179 177 177 175 173 176 182 191 194 194 188 170 171 178 167 159 156 153 154 146 151 148 110 96 90 79 85 89 92 93 93 96 92 91 88 80 84 85 82 86 87 89 96 104 108 103 98 97 87 77 66 53 37 26 40 47 25 10 2 5 356 347 1 8 158 184 187 178 170 211 228 277 303 266 259 303 310
171 165 164 168 172 171 172 176 178 179 179 178 179 179 184 195 199 197 189 174 181 186 172 163 164 172 172 165 174 166 133 119 107 84 86 98 112 111 105 108 104 95 93 85 83 84 81 86 88 92 96 94 98 99 92 98 97 89 85 69 63 56 41 50 47 29 20 15 3 333 347 354 346 293 186 191 230 185 202 243 256 271 276 286 298